Change the Weather History Date:

Wednesday, March 20, 2013

  Actual Average Record
Temperature  
Mean Temperature 48 °F 44 °F  
Max Temperature 59 °F 58 °F 79 °F (1947)
Min Temperature 36 °F 31 °F 17 °F (1955)
Degree Days  
Heating Degree Days 17 21  
Month to date heating degree days 392 462  
Since 1 July heating degree days 4355 4989  
Cooling Degree Days 0 0  
Month to date cooling degree days 0 0  
Year to date cooling degree days 0 0  
Moisture  
Dew Point 33 °F    
Average Humidity 63    
Maximum Humidity 92    
Minimum Humidity 33    
Precipitation  
Precipitation 0.01 in 0.01 in 0.46 in (1984)
Month to date precipitation 0.70 0.44  
Year to date precipitation 0.83 2.36  
Snow  
Snow 0.00 in 0.00 in 0.20 in (1975)
Month to date snowfall T 0.6  
Year to date snowfall 1.1 8.5  
Since 1 July snowfall 15.3 21.5  
Snow Depth 0.00 in    
Sea Level Pressure  
Sea Level Pressure 29.66 in    
Wind  
Wind Speed 9 mph (West)    
Max Wind Speed 30 mph    
Max Gust Speed 38 mph    
Visibility 8 miles    
Events Rain    
T = Trace of Precipitation, MM = Missing Value Source: NWS Daily Summary

Daily Weather History Graph

Daily Weather History Graph

Search for Another Location

Airport or City:

Trip Planner

Search our weather history database for the weather conditions in past years. The results will help you decide how hot, cold, wet, or windy it might be!

Date:

Astronomy

Mar. 20, 2013 Rise Set
Actual Time 7:04 AM PDT 7:15 PM PDT
Civil Twilight 6:34 AM PDT 7:45 PM PDT
Nautical Twilight 5:59 AM PDT 8:20 PM PDT
Astronomical Twilight 5:22 AM PDT 8:57 PM PDT
Moon 12:36 PM PDT (3/20) 3:07 AM PDT (3/20)
Length of Visible Light 13h 11m
Length of Day
12h 10m
First Quarter, 60% of the Moon is Illuminated
Mar 20
First Quarter
Mar 27
Full
Apr 2
Last Quarter
Apr 10
New
Apr 18
First Quarter

Hourly Weather History & Observations

Time (PDT) Temp. Windchill Dew Point Humidity Pressure Visibility Wind Dir Wind Speed Gust Speed Precip Events Conditions
12:25 AM 37.4 °F - 35.6 °F 93% 29.76 in 6.0 mi Calm Calm - 0.02 in Rain Light Rain
12:53 AM 37.9 °F - 34.0 °F 86% 29.76 in 8.0 mi Calm Calm - 0.03 in Rain Light Rain
1:53 AM 37.9 °F - 35.1 °F 89% 29.74 in 7.0 mi Calm Calm - 0.01 in Rain Light Rain
2:53 AM 37.0 °F - 33.1 °F 86% 29.70 in 6.0 mi Calm Calm - 0.00 in   Partly Cloudy
3:22 AM 35.6 °F - 33.8 °F 93% 29.69 in 4.0 mi Calm Calm - N/A   Mostly Cloudy
3:31 AM 35.6 °F - 33.8 °F 93% 29.68 in 2.5 mi Calm Calm - 0.00 in Rain Light Rain
3:46 AM 35.6 °F - 33.8 °F 93% 29.66 in 4.0 mi Calm Calm - 0.00 in Rain Light Rain
3:53 AM 36.0 °F - 33.1 °F 89% 29.68 in 3.0 mi Calm Calm - 0.00 in   Overcast
4:53 AM 37.0 °F - 34.0 °F 89% 29.64 in 3.0 mi Calm Calm - N/A   Overcast
5:53 AM 37.0 °F 33.3 °F 34.0 °F 89% 29.63 in 6.0 mi West 4.6 mph - 0.00 in   Overcast
6:19 AM 37.4 °F - 33.8 °F 87% 29.59 in 6.0 mi Calm Calm - 0.00 in   Overcast
6:53 AM 37.0 °F - 34.0 °F 89% 29.60 in 7.0 mi Calm Calm - 0.00 in Rain Light Rain
7:04 AM 37.4 °F 33.8 °F 33.8 °F 87% 29.58 in 8.0 mi West 4.6 mph - 0.00 in Rain Light Rain
7:53 AM 37.9 °F - 35.1 °F 89% 29.57 in 7.0 mi Calm Calm - 0.00 in   Overcast
8:04 AM 37.4 °F - 35.6 °F 93% 29.55 in 7.0 mi Calm Calm - N/A   Overcast
8:53 AM 39.9 °F - 36.0 °F 86% 29.56 in 6.0 mi Calm Calm - N/A   Overcast
9:35 AM 41.0 °F 37.1 °F 37.4 °F 87% 29.53 in 6.0 mi West 5.8 mph - N/A   Overcast
9:53 AM 42.1 °F 40.2 °F 37.0 °F 82% 29.56 in 7.0 mi SW 3.5 mph - N/A   Overcast
10:46 AM 42.8 °F 39.3 °F 37.4 °F 81% 29.54 in 8.0 mi West 5.8 mph - 0.00 in   Mostly Cloudy
10:53 AM 43.0 °F - 37.9 °F 82% 29.56 in 8.0 mi Calm Calm - 0.00 in   Mostly Cloudy
11:53 AM 50.0 °F - 42.1 °F 74% 29.57 in 10.0 mi NNW 10.4 mph - N/A   Mostly Cloudy
12:01 PM 50.0 °F - 42.8 °F 76% 29.55 in 10.0 mi NW 3.5 mph - N/A   Mostly Cloudy
12:53 PM 57.9 °F - 42.1 °F 56% 29.55 in 10.0 mi West 15.0 mph 21.9 mph N/A   Scattered Clouds
1:17 PM 57.2 °F - 37.4 °F 48% 29.56 in 10.0 mi WNW 15.0 mph 27.6 mph N/A   Partly Cloudy
1:28 PM 57.2 °F - 33.8 °F 41% 29.55 in 10.0 mi West 19.6 mph 29.9 mph N/A   Partly Cloudy
1:53 PM 57.9 °F - 28.9 °F 33% 29.57 in 10.0 mi West 18.4 mph 33.4 mph N/A   Scattered Clouds
2:53 PM 57.9 °F - 32.0 °F 37% 29.61 in 10.0 mi WNW 23.0 mph 34.5 mph N/A   Mostly Cloudy
3:03 PM 57.2 °F - 30.2 °F 36% 29.60 in 10.0 mi West 15.0 mph 25.3 mph N/A   Mostly Cloudy
3:53 PM 54.0 °F - 30.9 °F 41% 29.65 in 10.0 mi WNW 13.8 mph - N/A   Mostly Cloudy
4:53 PM 54.0 °F - 28.0 °F 37% 29.68 in 10.0 mi WSW 17.3 mph 23.0 mph N/A   Clear
5:53 PM 50.0 °F - 30.0 °F 46% 29.72 in 10.0 mi West 19.6 mph 24.2 mph N/A   Scattered Clouds
6:53 PM 45.0 °F 40.1 °F 32.0 °F 60% 29.77 in 10.0 mi WSW 9.2 mph - N/A   Scattered Clouds
7:53 PM 43.0 °F 37.2 °F 30.0 °F 60% 29.81 in 10.0 mi WSW 10.4 mph - N/A   Scattered Clouds
8:53 PM 39.9 °F 33.4 °F 28.9 °F 65% 29.86 in 10.0 mi West 10.4 mph - N/A   Clear
9:53 PM 41.0 °F 36.4 °F 27.0 °F 57% 29.88 in 10.0 mi WSW 6.9 mph - N/A   Mostly Cloudy
10:53 PM 41.0 °F 34.3 °F 23.0 °F 49% 29.90 in 10.0 mi WNW 11.5 mph - N/A   Clear
11:53 PM 41.0 °F 32.8 °F 21.0 °F 45% 29.92 in 10.0 mi West 16.1 mph 25.3 mph N/A   Clear